Weather in Shkolny

Russia / Kostroma Oblast     58°32′29″N   44°17′39″E
temp.,
°C
wind,
m/s
gust,
m/s
humid.,
%
clouds,
%
prec.,
mm/h
press.,
hPa
HPBL,
m
10 may, mon
mon1000:00+5nnw51295100 3.3 1015558
03:00+5nnw41095100 3.4 1018519
06:00+4nnw41193100 0.1 1021543
09:00+5n41090100 0.3 1023638
12:00+10nne4566100 0.0 10251110
15:00+13nne345139 0.0 10261460
18:00+12nne24585 0.0 1027501
21:00+6ene11865 0.0 102811
11 may, tue
tue1100:00+5e11945 0.0 103010
03:00+4ne11947 0.0 103110
06:00+7ne12818 0.0 1031114
09:00+13ene23536 0.0 1031680
12:00+17ene223816 0.0 10301059
15:00+19e22375 0.0 10301131
18:00+17e12545 0.0 103050
21:00+11ese11675 0.0 103110
12 may, wed
wed1200:00+9e11727 0.0 103110
03:00+7ene22765 0.0 103111
06:00+10ene24685 0.0 1032109
09:00+17e24455 0.0 1031554
12:00+20ese33335 0.0 1030943
15:00+22ese33400 0.0 10281251
18:00+21ese255911 0.0 1028183
21:00+15e348199 0.0 102867
13 may, thu
thu1300:00+13ese279053 0.0 1028123
03:00+12ese239497 0.0 102843
06:00+14ese2584100 0.0 1028128
09:00+20se365598 0.0 1027645
12:00+24sse5741100 0.0 10262195
15:00+24sse56375 0.0 10242146
18:00+22sse3853100 0.0 1023346
21:00+16se2970100 0.0 1023171
14 may, fri
fri1400:00+14sse277959 0.0 1024140
03:00+14se228338 0.0 102329
06:00+15sse368477 0.1 1023228
09:00+20sse3665100 0.1 1022689
12:00+22s365793 0.0 10211182
15:00+24s4843100 0.0 10201701
18:00+23s375198 0.0 1018377
21:00+17s277971 0.0 1018125